Regional Weather Roundup
Issued by NWS

Home | Current Version | Previous Version | Text Only | Print | Product List | Glossary On
Versions: 1 2 3 4 5 6 7 8 9 10 11 12 13 14 15 16 17 18 19 20 21 22 23 24 25 26 27
000
ASUS44 KLIX 241713
RWRLA
LOUISIANA WEATHER ROUNDUP
NATIONAL WEATHER SERVICE NEW ORLEANS LA
1200 PM CDT SUN SEP 24 2017

NOTE: "FAIR" INDICATES FEW OR NO CLOUDS BELOW 12,000 FEET WITH NO
      SIGNIFICANT WEATHER AND/OR OBSTRUCTIONS TO VISIBILITY.
      SKY/WX - SKY CONDITION AND SIGNIFICANT WEATHER.
      TMP - AIR TEMPERATURE.    DP   - DEWPOINT TEMPERATURE.
      RH  - RELATIVE HUMIDITY.  PRES - PRESSURE.
      HX  - HEAT INDEX.         WCI  - WIND CHILL INDEX.

*  THESE STATIONS ARE NOT NWS OR FAA STATIONS AND ARE NOT UNDER
   NWS QUALITY CONTROL.

LAZ040-048-061>063-065-066-069-241800-
SOUTHEAST LOUISIANA

CITY           SKY/WX    TMP DP  RH WIND       PRES   REMARKS
N.O. INTL ARPT MOSUNNY   85  73  67 NE13      29.93F
N.O. LAKEFRONT MOSUNNY   87  69  54 E10       29.94F
N.O. DOWNTOWN* FAIR      85  69  58 NE12G17   29.95S
RESERVE*       FAIR      88  71  56 E10       29.95R
SLIDELL        MOSUNNY   88  71  57 VRB7      29.94F
BATON ROUGE    MOSUNNY   87  68  52 E9        29.95F
BOOTHVILLE     SUNNY     84  75  74 E14       29.94S
BELLE CHASSE   NOT AVBL
BOGALUSA*      FAIR      89  68  49 E6        29.97F
GALLIANO*      SUNNY     85  66  51 NE7       29.94R
NEW ROADS*     PTSUNNY   84  69  60 NE6       29.96S
GONZALES*      FAIR      87  69  55 E5        29.93F
HAMMOND*       SUNNY     88  64  45 SE8       29.95S
HOUMA*         NOT AVBL
PORT FOURCHON* SUNNY     84  73  70 E14       29.93S

$$

LAZ041-044-053-054-241800-
SOUTHWEST LOUISIANA

CITY           SKY/WX    TMP DP  RH WIND       PRES   REMARKS
LAKE CHARLES   MOSUNNY   87  72  60 E9        29.93S
LAFAYETTE      MOSUNNY   87  71  58 SE7       29.94F
PATTERSON      PTSUNNY   85  73  67 E12       29.94S
SALT POINT       N/A     86  73  65 VRB5      29.91F
NEW IBERIA     MOSUNNY   86  69  56 E10       29.95S
CHENAULT AIRPK MOSUNNY   88  72  58 E7G16     29.94S

$$

LAZ027-028-241800-
CENTRAL LOUISIANA

CITY           SKY/WX    TMP DP  RH WIND       PRES   REMARKS
FORT POLK      SUNNY     87  66  50 SE10      29.94F
ALEXANDRIA INT SUNNY     88  64  45 E7        29.94F
ALEXANDRIA     SUNNY     87  68  52 NE5       29.96F

$$

LAZ001-002-241800-
NORTHWEST LOUISIANA

CITY           SKY/WX    TMP DP  RH WIND       PRES   REMARKS
SHREVEPORT     MOSUNNY   88  68  51 VRB5      29.96F
BARKSDALE AFB  MOSUNNY   87  69  54 S8        29.96S
DTN SHREVEPORT SUNNY     88  70  55 SE6       29.96F

$$

LAZ014-016-241800-
NORTHEAST LOUISIANA

CITY           SKY/WX    TMP DP  RH WIND       PRES   REMARKS
MONROE         SUNNY     88  68  51 E7        29.98F
TALLULAH       SUNNY     86  69  56 E10       29.98F

$$





USA.gov is the U.S. government's official web portal to all federal, state and local government web resources and services.